EHI
10 18 33 42 41 38 34 26 19 15 14 14 16 18 19 19 20 19 18 17 16 13 11 9 7 6 5 4 4 4 5 4 3 1 1 1 2 4 6 6 5 7 11
15 21 32 40 40 39 35 28 20 15 13 12 13 17 19 19 19 17 17 16 14 11 10 7 5 5 5 5 3 2 3 4 3 2 3 2 2 4 5 6 6 7 10
22 23 30 38 41 41 37 29 21 16 13 11 11 13 16 17 16 14 13 12 10 8 7 5 4 5 6 5 3 1 1 2 3 3 3 2 1 2 3 5 6 7 7
25 23 27 38 44 43 39 31 23 17 14 11 10 11 12 12 12 11 9 7 6 6 6 6 5 5 5 4 3 1 0 1 2 3 2 1 0 1 2 4 5 5 5
23 21 27 40 47 46 41 34 27 21 16 13 11 9 7 7 7 7 6 4 4 4 5 6 6 6 5 3 2 1 0 1 2 3 2 1 0 1 2 3 4 4 4
22 21 29 44 51 49 43 37 32 26 20 16 12 8 5 4 4 4 4 3 3 3 4 4 5 5 4 2 1 1 1 2 2 1 1 0 1 1 2 3 4 4 4
27 25 34 48 55 54 46 38 34 30 25 19 15 9 5 3 3 3 4 4 4 3 3 3 2 2 1 1 2 3 2 2 1 0 0 0 2 4 5 5 6 5 4
34 32 37 46 53 54 48 39 34 32 28 24 18 11 6 4 3 4 5 5 5 4 3 2 1 0 0 0 2 3 2 1 0 0 0 0 3 7 9 9 9 8 6
39 39 39 40 44 46 43 38 35 32 29 26 20 13 9 6 5 4 5 6 5 3 1 1 0 0 0 1 1 2 2 1 0 0 0 0 3 7 10 11 12 10 8
41 41 39 35 33 33 32 33 34 32 28 25 20 15 11 9 7 5 4 5 5 2 0 0 0 0 0 1 1 2 2 1 0 0 0 0 3 7 10 12 11 10 9
42 40 37 31 27 26 26 27 29 29 27 23 20 16 12 9 6 4 4 6 6 3 1 0 0 0 0 0 1 1 2 1 0 0 0 2 5 8 10 11 10 7 7
42 38 33 29 27 26 25 23 24 25 24 22 19 15 12 9 6 4 4 6 5 3 1 0 0 0 0 0 0 1 1 1 1 1 1 3 7 9 10 9 7 6 5
43 39 33 29 27 25 23 21 21 21 20 18 16 14 12 9 7 6 7 6 5 4 3 1 1 1 0 0 0 0 0 1 2 1 1 4 7 8 8 7 7 7 7
43 39 34 28 25 23 23 22 20 19 17 14 13 14 12 8 7 8 9 8 6 5 3 2 2 1 0 0 0 0 1 2 2 1 1 2 4 5 6 7 7 8 8
40 38 34 28 24 23 24 23 21 18 15 12 11 11 10 7 6 8 10 9 7 5 4 3 2 1 0 0 0 0 1 2 2 1 0 1 1 3 6 6 7 8 8
36 34 32 28 26 25 25 23 21 18 14 11 9 8 7 6 5 7 8 6 5 4 3 3 3 2 1 0 0 1 1 1 1 0 0 0 1 3 5 6 7 7 7
32 31 30 29 26 25 25 24 22 19 14 11 9 7 5 5 6 6 5 4 3 3 3 3 3 3 2 1 1 1 1 0 0 0 0 0 0 2 4 6 6 6 6
29 28 30 30 26 24 25 24 23 21 16 12 10 8 6 6 6 6 4 3 3 3 3 3 3 3 3 3 2 1 0 0 0 0 0 0 0 0 2 5 6 6 5
27 28 30 31 28 24 24 24 22 20 17 14 12 10 8 6 5 4 3 3 3 3 3 3 3 3 3 3 2 1 0 0 0 0 0 0 0 0 0 2 5 5 6
29 28 30 32 30 26 23 22 20 18 15 14 14 12 8 5 4 3 3 3 3 3 3 3 3 3 3 3 2 1 1 0 0 0 0 0 0 0 0 1 2 3 5
31 29 30 33 32 28 23 20 18 15 14 13 13 11 8 5 4 3 3 3 3 3 3 3 3 2 2 2 2 1 0 0 0 0 0 0 1 1 0 0 0 1 2
31 30 32 33 32 27 21 18 16 14 13 12 11 9 7 5 4 3 3 3 3 3 3 2 1 1 1 1 1 0 0 0 0 0 0 0 0 1 1 0 0 0 0
31 30 31 32 29 24 19 15 14 13 12 11 10 8 7 6 4 3 3 3 3 3 2 1 0 0 0 0 0 0 0 0 0 0 0 0 0 0 0 0 0 0 0
31 30 30 30 27 21 15 13 12 12 12 10 9 8 7 6 5 4 3 3 3 2 1 1 1 1 1 1 1 0 0 0 0 0 0 0 0 0 0 0 0 0 0
31 30 28 28 25 19 13 11 11 11 10 8 7 8 7 5 5 4 4 3 3 3 2 2 2 2 2 2 2 1 1 1 0 0 0 0 0 0 0 0 0 0 0
31 29 28 27 24 20 14 10 9 9 7 6 6 6 6 6 5 5 5 4 3 3 3 3 3 3 3 3 3 2 2 2 1 0 0 0 0 0 0 0 0 0 0
Wind_Speed
7 7 13 15 15 15 15 14 14 14 14 14 14 14 14 14 14 14 14 14 14 14 14 14 14 14 14 14 15 14 14 14 14 14 14 14 14 14 13 14 12 9 14
11 10 15 15 15 15 15 14 14 14 14 13 13 13 13 13 13 13 13 13 13 13 14 14 14 14 13 13 13 13 13 13 12 12 12 12 13 13 12 12 11 8 13
13 10 13 15 15 15 15 14 14 13 13 13 13 13 12 12 12 12 12 12 12 13 13 13 13 13 13 12 12 12 12 11 10 10 10 6 8 12 11 12 11 12 12
14 10 11 16 16 15 15 14 14 14 13 13 13 13 12 12 12 12 12 12 12 11 12 12 12 12 11 11 11 11 10 10 9 9 5 4 5 10 11 11 11 11 11
12 9 12 17 16 15 15 14 14 14 13 13 12 12 12 12 11 11 11 11 11 11 11 11 11 10 10 9 9 9 9 9 9 7 4 4 3 8 10 11 10 10 10
11 10 12 17 16 16 15 15 14 14 13 13 13 12 12 11 11 11 11 11 10 10 10 10 9 9 9 8 8 7 7 8 7 5 4 4 4 7 9 10 9 9 9
11 9 11 16 16 15 15 15 14 14 13 13 12 12 11 11 10 10 10 10 10 9 9 9 8 8 8 8 7 6 7 9 6 5 4 3 4 7 9 9 8 8 8
13 10 10 15 16 15 15 14 14 13 13 12 12 11 11 10 10 10 9 10 9 9 9 8 8 7 7 7 6 6 7 7 7 6 4 3 5 7 8 8 8 8 8
13 10 7 8 11 14 14 13 13 12 12 12 11 11 11 11 10 10 9 9 9 9 8 8 8 7 6 6 5 6 6 9 5 3 5 3 6 7 8 8 8 8 7
10 9 8 7 6 7 8 13 13 13 12 12 12 12 12 11 10 10 9 8 9 9 8 8 7 7 6 5 5 6 8 7 3 3 2 4 7 8 8 8 8 7 7
9 7 8 7 6 6 6 9 11 12 11 10 9 11 9 5 5 6 8 9 9 9 8 7 6 5 5 5 5 6 6 3 3 2 2 6 8 7 7 7 7 7 7
10 9 7 8 7 7 6 5 4 5 5 5 4 5 4 3 3 5 7 9 9 9 8 7 6 4 3 2 3 5 2 3 3 2 3 7 7 7 7 7 7 7 8
10 10 9 8 7 7 4 5 3 3 3 4 4 5 4 3 3 3 2 4 4 5 3 3 3 2 2 1 1 2 3 2 2 2 3 7 8 8 7 7 7 7 8
9 8 8 8 7 6 5 5 4 3 3 3 4 5 4 3 3 3 2 2 2 2 2 2 1 2 2 2 3 3 3 2 2 2 3 8 7 7 7 7 7 7 7
7 7 8 7 7 6 5 4 5 4 4 4 4 4 5 4 4 3 3 2 3 2 3 2 2 2 2 2 3 4 4 3 3 2 2 7 7 7 7 7 7 7 7
8 7 7 8 7 6 5 4 4 4 4 4 4 5 5 4 4 4 3 3 3 3 3 3 2 2 2 2 2 3 3 4 3 3 2 3 6 7 7 7 7 7 7
8 7 6 7 6 7 6 5 4 4 4 4 4 5 5 5 5 4 3 3 3 3 3 3 2 2 2 3 2 2 3 3 4 4 3 2 3 5 7 7 7 7 7
8 7 6 6 6 6 5 5 4 4 4 4 3 4 5 5 6 5 4 3 3 3 3 3 2 2 2 2 2 1 1 2 3 3 3 3 2 2 4 7 7 7 7
8 8 6 5 6 5 5 4 4 4 4 4 3 3 4 5 6 5 4 3 4 3 3 3 2 2 2 2 2 1 1 1 2 3 3 3 3 3 2 5 7 7 7
7 7 7 5 5 5 4 3 2 3 3 3 4 4 5 4 6 5 4 4 4 4 3 2 3 2 2 2 2 1 1 1 1 2 3 2 3 4 3 3 3 4 7
7 7 6 6 5 5 4 4 3 3 3 3 3 4 5 5 5 5 4 4 4 4 4 4 3 2 1 1 2 2 2 1 1 2 2 2 2 3 3 3 3 2 3
8 7 6 6 6 5 4 3 3 3 2 3 3 4 5 5 6 5 5 4 4 4 4 3 3 2 1 2 3 2 1 3 2 2 1 2 3 2 3 4 3 4 3
8 8 7 6 6 4 4 3 3 2 2 1 2 3 4 5 6 5 6 5 4 4 4 3 4 4 2 1 2 3 3 2 2 2 1 2 2 2 2 2 4 4 4
8 7 6 6 5 4 5 5 5 4 3 3 2 3 3 5 5 6 6 5 5 4 4 3 3 3 3 2 0 0 2 3 2 1 3 2 1 2 3 3 3 4 4
8 7 6 5 5 4 4 6 5 3 2 2 2 3 3 3 4 5 5 5 4 4 4 4 3 3 2 3 2 1 0 0 1 2 2 2 2 2 2 2 3 3 4
6 6 6 6 5 5 5 5 5 5 4 4 3 4 3 3 3 4 5 4 4 4 4 4 4 4 2 3 2 2 2 2 1 2 2 2 2 2 2 2 2 3 3
Wind_Direction
147 156 140 129 123 118 115 112 110 107 105 103 102 102 102 102 104 106 106 106 106 105 104 102 102 101 103 107 110 110 108 108 107 110 113 115 118 119 122 129 125 120 119
148 153 142 133 127 123 120 118 115 113 111 109 108 108 107 106 107 107 108 108 108 107 107 107 105 104 104 107 111 111 111 110 107 110 112 115 119 120 119 121 121 119 121
143 147 142 136 132 129 126 122 120 119 117 115 114 113 112 110 110 110 111 109 110 111 111 110 109 108 108 109 110 111 112 112 110 109 108 107 114 119 119 121 121 120 122
143 145 143 139 136 134 131 128 127 126 124 122 120 119 118 116 115 114 114 113 113 114 115 115 113 112 110 107 107 109 110 108 109 109 105 107 116 124 125 126 125 125 127
142 144 148 142 140 138 136 134 133 132 130 129 127 124 124 123 121 121 121 119 118 120 120 120 118 117 116 113 109 109 109 106 108 105 107 109 109 126 129 130 131 133 134
143 147 151 146 144 143 142 140 139 138 136 133 131 130 130 129 128 129 128 127 126 127 127 127 125 123 122 119 114 112 111 108 106 102 105 113 117 132 133 133 135 138 139
142 146 151 147 147 147 146 145 144 142 140 140 138 135 135 135 135 134 133 134 134 132 132 133 132 128 126 124 119 110 112 110 109 107 106 114 125 137 139 139 141 145 148
144 146 150 151 150 150 151 149 147 146 145 145 144 141 139 140 140 140 139 141 141 139 140 140 138 135 130 125 121 116 118 119 112 115 120 126 134 136 141 140 140 143 147
142 142 146 152 153 153 153 154 151 151 150 150 150 148 147 146 147 147 148 149 149 148 149 145 143 142 138 130 123 123 126 128 119 125 132 133 139 138 137 137 140 141 142
138 143 148 150 150 153 157 160 158 157 156 157 158 157 156 155 155 157 158 158 158 156 155 149 149 148 141 133 125 123 125 127 118 123 133 144 147 145 141 138 137 137 139
140 147 150 154 154 153 158 166 164 163 163 161 164 165 160 158 160 163 168 167 166 164 160 158 157 150 142 132 128 126 124 125 121 121 134 139 145 149 146 140 137 137 139
157 162 160 161 161 158 165 157 160 164 162 159 160 163 158 157 168 169 175 175 173 168 165 165 167 153 132 106 124 126 122 129 128 135 143 143 147 147 146 140 140 145 147
164 163 165 165 165 165 159 155 163 156 158 163 169 167 160 156 161 164 160 170 170 165 160 157 154 139 125 119 117 127 131 135 137 145 143 144 147 147 146 142 139 143 148
155 161 162 165 166 167 159 162 163 160 165 172 175 168 160 158 162 162 158 157 155 153 155 154 164 156 145 151 141 136 137 138 137 140 153 152 154 155 155 151 149 146 148
143 151 157 158 165 166 158 162 157 164 167 171 168 170 166 162 165 165 165 169 168 157 156 159 169 143 132 131 140 144 145 147 148 155 156 159 161 164 162 161 159 157 158
148 150 155 158 162 160 157 161 160 166 164 159 168 175 167 161 161 160 163 165 164 164 157 153 151 142 135 131 138 147 146 147 161 168 169 165 170 172 171 169 168 169 170
149 149 149 155 156 157 159 163 157 161 155 157 166 167 161 153 153 152 158 161 167 153 135 123 118 114 130 129 138 155 149 153 166 172 173 175 177 182 180 177 175 178 179
145 148 151 152 152 156 155 157 153 155 151 159 161 158 155 150 147 143 143 162 153 137 131 129 128 118 123 132 146 166 161 159 173 178 176 174 175 185 186 185 186 185 185
149 145 140 139 152 153 148 148 146 149 151 156 153 153 155 149 147 144 147 151 140 127 129 142 129 137 139 142 156 168 184 181 190 186 181 181 182 186 188 194 194 194 194
143 138 137 134 144 142 133 125 125 132 148 150 152 155 154 152 149 144 145 143 134 127 125 124 131 121 136 152 146 136 242 219 208 200 198 188 191 196 192 197 200 209 204
138 137 140 139 144 142 143 150 153 162 166 160 159 158 158 154 154 151 148 142 140 139 147 143 130 125 123 115 87 31 350 328 237 227 211 194 203 204 188 194 200 207 215
151 151 148 145 150 158 163 162 159 157 168 164 161 159 161 158 161 162 153 152 149 142 142 141 131 131 146 131 127 107 15 344 326 254 225 206 211 207 205 204 198 202 209
158 161 159 160 155 159 152 128 113 93 89 109 160 170 172 162 159 157 155 150 150 149 158 157 147 145 153 165 146 144 151 213 288 318 268 227 216 210 225 221 210 209 209
172 166 158 160 157 162 153 151 150 159 167 189 177 170 173 168 162 161 157 154 155 152 157 166 151 143 142 162 208 190 177 166 159 303 318 304 245 216 221 222 219 211 207
169 162 160 156 160 167 160 160 162 158 167 160 148 151 159 162 162 161 158 156 158 160 162 159 146 144 149 159 169 171 173 102 138 154 253 299 314 271 236 223 216 215 214
158 160 169 165 172 171 166 165 161 158 155 149 157 168 168 164 164 159 154 157 160 162 164 162 159 162 167 161 163 162 164 166 187 169 199 240 266 282 270 248 219 217 213